KA5J Weather Reports


Display with metric or nautical units.
time (UTC)temp
F
wind
direction
speed
MPH
gust
MPH
rain 1hr
in
rain 24hr
in
rain mn
in
humidity
%
barometer
mb
20260506015529 51 46 6.0 13.0 0.00 0.00 0.00 74 1011.0
20260506015031 51 77 4.0 13.0 0.00 0.00 0.00 74 1011.0
20260506014540 51 46 4.0 13.0 0.00 0.00 0.00 74 1010.6
20260506014028 51 84 3.0 12.0 0.00 0.00 0.00 74 1010.7
20260506013528 51 26 5.0 12.0 0.00 0.00 0.00 74 1010.7
20260506013044 51 46 4.0 18.0 0.00 0.00 0.00 74 1010.5
20260506012528 51 109 6.0 18.0 0.00 0.00 0.00 74 1010.3
20260506012028 51 20 8.0 16.0 0.00 0.00 0.00 74 1010.1
20260506011540 52 30 4.0 13.0 0.00 0.00 0.00 74 1010.1
20260506011029 52 28 5.0 13.0 0.00 0.00 0.00 74 1010.2
20260506010529 52 86 5.0 15.0 0.00 0.00 0.00 74 1010.1
20260506010054 52 91 6.0 15.0 0.00 0.00 0.00 73 1010.1
20260506005528 52 305 4.0 11.0 0.00 0.00 0.00 73 1010.0
20260506005028 52 35 5.0 11.0 0.00 0.00 0.00 73 1009.9
20260506004547 52 84 5.0 18.0 0.00 0.00 0.00 73 1010.1
20260506004028 52 27 9.0 18.0 0.00 0.00 0.00 73 1010.0
20260506003529 52 60 7.0 16.0 0.00 0.00 0.00 72 1010.0
20260506003041 52 54 4.0 14.0 0.00 0.00 0.00 72 1009.9
20260506002528 52 91 6.0 14.0 0.00 0.00 0.00 71 1010.2
20260506002028 52 80 7.0 20.0 0.00 0.00 0.00 71 1010.1
20260506001547 52 72 5.0 20.0 0.00 0.00 0.00 71 1009.9
20260506001028 52 42 7.0 24.0 0.00 0.00 0.00 70 1009.3
20260506000528 53 47 8.0 24.0 0.00 0.00 0.00 70 1009.5
20260506000044 53 111 5.0 13.0 0.00 0.00 0.00 70 1009.7
20260505235529 53 88 7.0 14.0 0.00 0.00 0.00 69 1009.5
20260505235028 53 83 6.0 14.0 0.00 0.00 0.00 69 1009.7
20260505234605 53 73 5.0 15.0 0.00 0.00 0.00 70 1009.8
20260505234032 53 49 6.0 19.0 0.00 0.00 0.00 70 1009.7
20260505233528 53 34 7.0 19.0 0.00 0.00 0.00 70 1009.6
20260505233042 53 31 9.0 19.0 0.00 0.00 0.00 70 1009.7
20260505232530 53 110 9.0 16.0 0.00 0.00 0.00 69 1009.4
20260505232029 53 337 7.0 21.0 0.00 0.00 0.00 69 1009.5
20260505231542 53 6 7.0 21.0 0.00 0.00 0.00 69 1009.3
20260505231028 53 19 8.0 21.0 0.00 0.00 0.00 69 1009.5
20260505230529 53 340 8.0 17.0 0.00 0.00 0.00 69 1009.4
20260505230045 54 86 6.0 16.0 0.00 0.00 0.00 69 1009.3
20260505225528 54 19 6.0 17.0 0.00 0.00 0.00 69 1009.0
20260505225029 54 32 8.0 17.0 0.00 0.00 0.00 69 1009.0
20260505224542 54 32 7.0 13.0 0.00 0.00 0.00 69 1008.9
20260505224030 54 1 8.0 16.0 0.00 0.00 0.00 68 1008.4
20260505223529 54 323 8.0 16.0 0.00 0.00 0.00 68 1008.7
20260505223040 54 15 7.0 15.0 0.00 0.00 0.00 68 1008.7
20260505222533 54 37 6.0 14.0 0.00 0.00 0.00 68 1008.7
20260505222029 54 42 7.0 14.0 0.00 0.00 0.00 68 1008.3
20260505221542 55 95 5.0 14.0 0.00 0.00 0.00 68 1008.2
20260505221031 55 240 5.0 16.0 0.00 0.00 0.00 69 1008.1
20260505220527 54 11 9.0 19.0 0.00 0.00 0.00 69 1007.9
20260505220045 54 79 9.0 19.0 0.00 0.00 0.00 69 1008.1
20260505215529 55 84 6.0 15.0 0.00 0.00 0.00 70 1008.2
20260505215029 55 34 8.0 15.0 0.00 0.00 0.00 70 1008.1
20260505214559 55 39 6.0 12.0 0.00 0.00 0.00 70 1008.3
20260505214028 55 359 5.0 12.0 0.00 0.00 0.00 70 1008.2
20260505213528 55 37 8.0 12.0 0.00 0.00 0.00 70 1008.0
20260505213057 55 19 3.0 10.0 0.00 0.00 0.00 71 1008.3
20260505212531 55 80 4.0 17.0 0.00 0.00 0.00 71 1008.5
20260505212029 55 350 8.0 17.0 0.00 0.00 0.00 71 1008.3
20260505211539 55 8 4.0 14.0 0.00 0.00 0.00 72 1008.3
20260505211033 55 354 5.0 14.0 0.00 0.00 0.00 72 1008.2
20260505210526 55 358 4.0 11.0 0.00 0.00 0.00 72 1007.9
20260505210040 55 349 6.0 14.0 0.00 0.00 0.00 72 1007.8
20260505205530 55 55 6.0 17.0 0.00 0.00 0.00 73 1007.5
20260505205029 55 4 7.0 17.0 0.00 0.00 0.00 73 1007.6
20260505204553 55 358 4.0 12.0 0.00 0.00 0.00 74 1007.7
20260505204028 55 104 6.0 15.0 0.00 0.00 0.00 74 1007.9
20260505203528 55 81 6.0 19.0 0.00 0.00 0.00 74 1008.1
20260505203047 55 30 8.0 19.0 0.00 0.00 0.00 74 1008.2
20260505202529 55 23 3.0 16.0 0.00 0.00 0.00 75 1008.2
20260505202030 55 82 7.0 16.0 0.00 0.00 0.00 75 1007.9
20260505201539 56 70 7.0 15.0 0.00 0.00 0.00 74 1007.7
20260505201028 56 319 6.0 19.0 0.00 0.00 0.00 74 1007.5
20260505200529 56 351 7.0 19.0 0.00 0.00 0.00 74 1007.6
20260505200058 56 65 9.0 19.0 0.00 0.00 0.00 74 1007.6
20260505195529 56 352 8.0 17.0 0.00 0.00 0.00 74 1007.7
20260505195029 56 56 8.0 15.0 0.00 0.00 0.00 73 1007.6
20260505194545 56 110 4.0 13.0 0.00 0.00 0.00 75 1007.6
20260505194030 56 17 8.0 13.0 0.00 0.00 0.00 75 1007.6
20260505193526 56 27 6.0 13.0 0.00 0.00 0.00 75 1007.6
20260505193048 56 349 2.0 14.0 0.00 0.00 0.00 77 1007.7
20260505192532 56 109 5.0 17.0 0.00 0.00 0.00 77 1007.7
20260505192028 56 20 6.0 21.0 0.00 0.00 0.00 77 1007.4
20260505191542 56 55 7.0 21.0 0.00 0.00 0.00 77 1007.3
20260505191029 56 94 8.0 15.0 0.00 0.00 0.00 77 1007.3
20260505190529 56 43 9.0 16.0 0.00 0.00 0.00 77 1007.2
20260505190042 56 39 7.0 16.0 0.00 0.00 0.00 78 1007.1
20260505185528 56 118 9.0 15.0 0.00 0.00 0.00 78 1007.1
20260505185028 56 46 7.0 19.0 0.00 0.00 0.00 78 1006.9
20260505184538 56 168 8.0 19.0 0.00 0.00 0.00 79 1006.9
20260505184029 56 59 8.0 19.0 0.00 0.00 0.00 79 1007.0
20260505183528 56 279 6.0 14.0 0.00 0.00 0.00 79 1006.9
20260505183044 56 24 6.0 13.0 0.00 0.00 0.00 80 1006.9
20260505182528 56 31 4.0 15.0 0.00 0.00 0.00 80 1006.8
20260505182028 56 70 5.0 15.0 0.00 0.00 0.00 80 1006.9
20260505181543 56 34 5.0 14.0 0.00 0.00 0.00 80 1006.9
20260505181029 56 348 6.0 13.0 0.00 0.00 0.00 80 1007.2
20260505180529 56 47 5.0 13.0 0.00 0.00 0.00 81 1007.1
20260505180103 56 16 5.0 13.0 0.00 0.00 0.00 81 1006.9
20260505175530 57 10 5.0 13.0 0.00 0.00 0.00 81 1006.8
20260505175032 57 39 6.0 16.0 0.00 0.00 0.00 81 1006.4
20260505174558 57 11 6.0 16.0 0.00 0.00 0.00 81 1006.2
20260505174029 57 39 8.0 18.0 0.00 0.00 0.00 81 1005.7
20260505173531 57 306 6.0 18.0 0.00 0.00 0.00 81 1006.0
20260505173045 57 39 6.0 18.0 0.00 0.00 0.00 81 1005.8
20260505172528 57 91 7.0 16.0 0.00 0.00 0.00 81 1006.0
20260505172028 57 358 4.0 17.0 0.00 0.00 0.00 82 1005.8
20260505171546 57 16 9.0 17.0 0.00 0.00 0.00 81 1005.8
20260505171029 57 26 8.0 19.0 0.00 0.00 0.00 81 1005.9
20260505170529 57 8 6.0 19.0 0.00 0.00 0.00 82 1006.1
20260505170048 57 74 7.0 16.0 0.00 0.00 0.00 82 1005.8
20260505165528 57 72 6.0 16.0 0.00 0.00 0.00 81 1005.2
20260505165028 58 45 5.0 15.0 0.00 0.00 0.00 81 1005.4
20260505164539 58 98 5.0 15.0 0.00 0.00 0.00 82 1005.3
20260505164028 58 91 8.0 22.0 0.00 0.00 0.00 81 1005.2
20260505163529 58 96 8.0 22.0 0.00 0.00 0.00 81 1005.0
20260505163042 58 27 9.0 19.0 0.00 0.00 0.00 81 1005.1
20260505162528 59 6 5.0 14.0 0.00 0.00 0.00 81 1004.9
20260505162028 59 4 7.0 14.0 0.00 0.00 0.00 81 1004.8
20260505161541 60 74 6.0 16.0 0.00 0.00 0.00 81 1005.0
20260505161032 60 77 5.0 16.0 0.00 0.00 0.00 81 1004.8
20260505160527 60 25 7.0 15.0 0.00 0.00 0.00 81 1004.5
20260505153045 65 37 8.0 18.0 0.00 0.00 0.00 76 1004.3
20260505152530 68 88 6.0 13.0 0.00 0.00 0.00 77 1004.0
20260505152027 69 356 5.0 13.0 0.00 0.00 0.00 77 1003.8
20260505151543 70 23 6.0 13.0 0.00 0.00 0.00 75 1003.8
20260505151028 71 43 3.0 8.0 0.00 0.00 0.00 75 1003.6
20260505150531 71 335 2.0 4.0 0.00 0.00 0.00 75 1003.5
20260505140528 69 109 4.0 9.0 0.00 0.00 0.00 78 1002.9
20260505125031 67 293 0.0 7.0 0.00 0.00 0.00 79 1003.1
20260505124546 67 110 2.0 7.0 0.00 0.00 0.00 79 1003.2
20260505124030 67 105 1.0 7.0 0.00 0.00 0.00 78 1003.2
20260505123530 67 185 1.0 7.0 0.00 0.00 0.00 79 1003.2
20260505123047 67 0 1.0 9.0 0.00 0.00 0.00 79 1003.0
20260505122531 67 82 2.0 9.0 0.00 0.00 0.00 79 1003.1
20260505122035 67 223 2.0 11.0 0.00 0.00 0.00 79 1002.9
20260505121540 67 204 3.0 13.0 0.00 0.00 0.00 79 1002.8
20260505121031 67 59 4.0 13.0 0.00 0.00 0.00 79 1002.9
20260505120529 67 44 6.0 13.0 0.00 0.00 0.00 79 1002.9
20260505120043 67 101 5.0 13.0 0.00 0.00 0.00 79 1002.8
20260505115528 67 85 4.0 18.0 0.00 0.00 0.00 79 1002.8
20260505115033 67 65 4.0 18.0 0.00 0.00 0.00 79 1002.7
20260505114544 67 66 7.0 13.0 0.00 0.00 0.00 79 1002.7
20260505114030 67 100 7.0 12.0 0.00 0.00 0.00 79 1002.7
20260505113530 67 81 5.0 12.0 0.00 0.00 0.00 79 1002.6
20260505113042 67 79 5.0 10.0 0.00 0.00 0.00 79 1002.6
20260505112531 67 51 3.0 10.0 0.00 0.00 0.00 79 1002.6
20260505112029 67 77 1.0 7.0 0.00 0.00 0.00 79 1002.5
20260505111543 67 127 2.0 9.0 0.00 0.00 0.00 79 1002.5
20260505111030 67 65 3.0 11.0 0.00 0.00 0.00 79 1002.4
20260505110530 67 57 2.0 11.0 0.00 0.00 0.00 79 1002.4
20260505102028 67 45 5.0 12.0 0.00 0.00 0.00 78 1001.7
20260505101542 67 94 2.0 9.0 0.00 0.00 0.00 79 1001.7
20260505101028 67 65 3.0 8.0 0.00 0.00 0.00 78 1001.7
20260505100528 67 81 1.0 13.0 0.00 0.00 0.00 78 1001.6
20260505100047 67 131 4.0 13.0 0.00 0.00 0.00 78 1001.6
20260505095527 67 86 6.0 11.0 0.00 0.00 0.00 78 1001.5
20260505095031 67 70 2.0 10.0 0.00 0.00 0.00 78 1001.5
20260505094537 67 108 3.0 10.0 0.00 0.00 0.00 77 1001.5
20260505094027 68 79 1.0 11.0 0.00 0.00 0.00 77 1001.5
20260505093527 68 98 4.0 11.0 0.00 0.00 0.00 77 1001.5
20260505093040 68 108 3.0 10.0 0.00 0.00 0.00 76 1001.6
20260505092526 68 356 2.0 7.0 0.00 0.00 0.00 76 1001.6
20260505092028 68 70 1.0 7.0 0.00 0.00 0.00 75 1001.5
20260505091548 69 112 1.0 11.0 0.00 0.00 0.00 75 1001.5
20260505091025 69 85 2.0 11.0 0.00 0.00 0.00 74 1001.6
20260505090528 69 84 2.0 7.0 0.00 0.00 0.00 74 1001.7
20260505090043 69 0 3.0 7.0 0.00 0.00 0.00 74 1001.7
20260505085528 69 75 1.0 7.0 0.00 0.00 0.00 74 1001.7
20260505085028 69 340 1.0 7.0 0.00 0.00 0.00 74 1001.7
20260505084544 69 87 1.0 8.0 0.00 0.00 0.00 74 1001.7
20260505084027 69 309 1.0 8.0 0.00 0.00 0.00 74 1001.7
20260505083528 69 46 2.0 8.0 0.00 0.00 0.00 74 1001.7
20260505083041 69 60 2.0 8.0 0.00 0.00 0.00 74 1001.7
20260505082527 69 79 3.0 8.0 0.00 0.00 0.00 73 1001.9
20260505082027 69 77 3.0 6.0 0.00 0.00 0.00 73 1001.9
20260505081539 69 94 1.0 7.0 0.00 0.00 0.00 73 1002.0
20260505081027 69 150 2.0 7.0 0.00 0.00 0.00 73 1002.0
20260505080529 69 70 4.0 9.0 0.00 0.00 0.00 73 1001.8
20260505080058 69 98 4.0 12.0 0.00 0.00 0.00 73 1002.1
20260505075528 69 113 4.0 12.0 0.00 0.00 0.00 73 1002.1
20260505075028 69 89 4.0 9.0 0.00 0.00 0.00 72 1002.1
20260505074544 69 0 2.0 10.0 0.00 0.00 0.00 73 1002.2
20260505074028 69 70 3.0 10.0 0.00 0.00 0.00 72 1002.3
20260505073529 69 86 3.0 10.0 0.00 0.00 0.00 72 1002.4
20260505073047 70 77 1.0 8.0 0.00 0.00 0.00 72 1002.5
20260505072531 70 64 4.0 8.0 0.00 0.00 0.00 72 1002.5
20260505072028 70 72 4.0 7.0 0.00 0.00 0.00 72 1002.6
20260505071551 70 84 3.0 7.0 0.00 0.00 0.00 71 1002.7
20260505071028 70 76 2.0 5.0 0.00 0.00 0.00 72 1002.7
20260505070530 70 77 1.0 4.0 0.00 0.00 0.00 72 1002.7
20260505070042 70 86 1.0 4.0 0.00 0.00 0.00 71 1002.7
20260505065527 70 86 1.0 6.0 0.00 0.00 0.00 72 1002.6
20260505065027 70 87 2.0 6.0 0.00 0.00 0.00 72 1002.8
20260505064545 70 51 2.0 4.0 0.00 0.00 0.00 72 1003.0
20260505064028 70 82 1.0 4.0 0.00 0.00 0.00 72 1003.2
20260505063528 70 64 2.0 4.0 0.00 0.00 0.00 72 1003.1
20260505063048 70 94 1.0 3.0 0.00 0.00 0.00 72 1003.1
20260505062528 70 23 0.0 3.0 0.00 0.00 0.00 71 1003.2
20260505062029 70 65 1.0 4.0 0.00 0.00 0.00 71 1002.9
20260505061604 70 167 0.0 4.0 0.00 0.00 0.00 71 1002.6
20260505061027 70 174 1.0 5.0 0.00 0.00 0.00 71 1002.3
20260505060531 70 0 1.0 5.0 0.00 0.00 0.00 71 1002.2
20260505060044 70 58 1.0 5.0 0.00 0.00 0.00 70 1002.1
20260505055526 70 160 1.0 6.0 0.00 0.00 0.00 70 1002.1
20260505055027 70 297 1.0 7.0 0.00 0.00 0.00 70 1002.1
20260505054544 70 174 1.0 7.0 0.00 0.00 0.00 70 1002.2
20260505054027 70 170 1.0 6.0 0.00 0.00 0.00 70 1002.2
20260505053527 70 167 3.0 6.0 0.00 0.00 0.00 70 1002.2
20260505053046 70 127 2.0 6.0 0.00 0.00 0.00 70 1002.5
20260505052531 70 172 1.0 6.0 0.00 0.00 0.00 69 1002.5
20260505052027 71 0 0.0 8.0 0.00 0.00 0.00 69 1002.7
20260505051605 71 103 1.0 8.0 0.00 0.00 0.00 69 1002.5
20260505051026 71 37 2.0 8.0 0.00 0.00 0.00 69 1002.5
20260505050527 70 0 1.0 6.0 0.00 0.00 0.00 69 1002.5
20260505041548 71 165 1.0 7.0 0.00 0.00 0.00 66 1002.3
20260505041030 71 136 2.0 8.0 0.00 0.00 0.00 66 1002.5
20260505040528 71 227 2.0 8.0 0.00 0.00 0.00 66 1002.6
20260505040046 71 105 3.0 12.0 0.00 0.00 0.00 66 1002.7
20260505035529 71 106 2.0 12.0 0.00 0.00 0.00 66 1002.9
20260505035027 71 160 2.0 8.0 0.00 0.00 0.00 66 1002.8
20260505034538 70 131 2.0 8.0 0.00 0.00 0.00 66 1002.6
20260505034033 70 129 3.0 10.0 0.00 0.00 0.00 66 1002.8
20260505033533 71 188 3.0 10.0 0.00 0.00 0.00 66 1003.1
20260505033042 71 160 3.0 10.0 0.00 0.00 0.00 65 1003.0
20260505032529 71 145 3.0 8.0 0.00 0.00 0.00 63 1003.2
20260505032027 71 193 2.0 8.0 0.00 0.00 0.00 63 1003.3
20260505031540 71 58 3.0 8.0 0.00 0.00 0.00 62 1003.3
20260505031027 71 102 3.0 8.0 0.00 0.00 0.00 62 1003.4
20260505030530 71 158 2.0 7.0 0.00 0.00 0.00 62 1003.4
20260505030038 71 120 2.0 9.0 0.00 0.00 0.00 62 1003.4
20260505025529 72 0 3.0 9.0 0.00 0.00 0.00 62 1003.6
20260505025029 72 140 2.0 8.0 0.00 0.00 0.00 62 1003.6
20260505024547 72 311 2.0 7.0 0.00 0.00 0.00 61 1003.7
20260505024030 72 136 2.0 7.0 0.00 0.00 0.00 61 1003.6
20260505023530 72 153 3.0 7.0 0.00 0.00 0.00 61 1003.6
20260505023044 72 131 2.0 7.0 0.00 0.00 0.00 60 1003.6
20260505022527 72 156 1.0 7.0 0.00 0.00 0.00 60 1003.7
20260505022029 72 236 1.0 8.0 0.00 0.00 0.00 60 1003.5
20260505021539 73 215 3.0 8.0 0.00 0.00 0.00 60 1003.5
20260505021029 73 124 1.0 6.0 0.00 0.00 0.00 60 1003.6
20260505020527 73 139 1.0 9.0 0.00 0.00 0.00 60 1003.5
20260505020038 73 151 2.0 9.0 0.00 0.00 0.00 59 1003.6